sat.trackr.live / text

‹ back to catalog

GLOBALSTAR M079

NORAD 37188 · 2010-054A

PAYLOAD ACTIVE UNKNOWN

§ Identity

Operator
Country
GLOB
Launch date
2010-10-19
Launch site
TYMSC
Launch vehicle
Mass (kg)
RCS (m²)
4.83

Purposes: comms

External: N2YO · Heavens-Above · Gunter

§ Orbital elements

Epoch: 2026-09-20T04:21:49.445856Z

Period
114.08 min
Inclination
52.0036°
Eccentricity
0.0000442
Mean motion
12.62267589 rev/d
Perigee alt
1,413.3 km
Apogee alt
1,413.9 km
Semi-major
7,791.7 km
B*
3.4737e-5
RAAN
179.4926°
Arg perigee
87.6628°
Mean anomaly
85.7403°
Rev number
73,454

§ Raw data

GLOBALSTAR M0791 37188U 10054A   26263.18182229 -.00000098  00000+0  34737-4 0  99942 37188  52.0036 179.4926 0000442  87.6628  85.7403 12.62267589734548

JSON: /api/v1/satellites/37188 · /tle

For live sub-satellite position, see the globe view (requires WebGL).

§ Visibility from observer

Set your observer location to see the next 7 days of passes ≥ 10°. The values pass through the URL so the page stays shareable.

No JS? Fill the form by hand. The geolocation button needs JavaScript.